Chico, CA

6:59 AM PDT on June 20, 2018 (GMT -0700)
Chico Municipal

Weather History for KCIC - April, 2017

Change the Weather History Date:

Friday, April 14, 2017

  Actual Average (KOVE) Record (KOVE)
Temperature  
Mean Temperature 50 °F -  
Max Temperature 62 °F 71 °F 91 °F (1990)
Min Temperature 37 °F 45 °F 35 °F (2005)
Degree Days  
Heating Degree Days 16    
Moisture  
Dew Point 33 °F    
Average Humidity 60    
Maximum Humidity 100    
Minimum Humidity 19    
Precipitation  
Precipitation 0.00 in - - ()
Sea Level Pressure  
Sea Level Pressure 30.18 in    
Wind  
Wind Speed 4 mph (NNW)    
Max Wind Speed 12 mph    
Max Gust Speed -    
Visibility 10 miles    
Events      
Averages and records for this station are not official NWS values.
T = Trace of Precipitation, MM = Missing Value Source: NWS Daily Summary

Daily Weather History Graph

Daily Weather History Graph

Search for Another Location

Airport or City:

Astronomy

Apr. 14, 2017 Rise Set
Actual Time 6:30 AM PDT 7:45 PM PDT
Civil Twilight 6:02 AM PDT 8:13 PM PDT
Nautical Twilight 5:29 AM PDT 8:46 PM PDT
Astronomical Twilight 4:54 AM PDT 9:21 PM PDT
Moon 11:07 PM PDT (4/14) 8:47 AM PDT (4/14)
Length of Visible Light 14h 10m
Length of Day
13h 14m
Waning Gibbous, 89% of the Moon is Illuminated
Apr 14
Waning Gibbous
Apr 19
Last Quarter
Apr 26
New
May 2
First Quarter
May 10
Full

Hourly Weather History & Observations

Time (PDT) Temp. Windchill Dew Point Humidity Pressure Visibility Wind Dir Wind Speed Gust Speed Precip Events Conditions
12:15 AM 44.6 °F 40.7 °F 39.2 °F 81% 30.17 in 10.0 mi NE 6.9 mph - N/A   Clear
12:35 AM 44.6 °F - 37.4 °F 76% 30.18 in 10.0 mi Calm Calm - N/A   Clear
12:55 AM 44.6 °F 40.7 °F 37.4 °F 76% 30.18 in 10.0 mi NE 6.9 mph - N/A   Clear
1:15 AM 44.6 °F 40.7 °F 37.4 °F 76% 30.18 in 10.0 mi NE 6.9 mph - N/A   Clear
1:35 AM 42.8 °F 39.3 °F 37.4 °F 81% 30.18 in 10.0 mi ENE 5.8 mph - N/A   Clear
1:55 AM 42.8 °F - 37.4 °F 81% 30.18 in 10.0 mi Calm Calm - N/A   Clear
2:15 AM 41.0 °F - 39.2 °F 93% 30.18 in 10.0 mi Calm Calm - N/A   Clear
2:35 AM 41.0 °F - 37.4 °F 87% 30.18 in 10.0 mi Calm Calm - N/A   Clear
2:55 AM 41.0 °F - 37.4 °F 87% 30.18 in 10.0 mi Calm Calm - N/A   Clear
3:15 AM 41.0 °F - 39.2 °F 93% 30.18 in 10.0 mi Calm Calm - N/A   Clear
3:35 AM 39.2 °F - 39.2 °F 100% 30.18 in 10.0 mi Calm Calm - N/A   Clear
3:55 AM 39.2 °F - 39.2 °F 100% 30.19 in 10.0 mi Calm Calm - N/A   Clear
4:15 AM 37.4 °F - 37.4 °F 100% 30.19 in 10.0 mi Calm Calm - N/A   Clear
4:35 AM 39.2 °F - 35.6 °F 87% 30.19 in 10.0 mi Calm Calm - N/A   Clear
4:55 AM 39.2 °F - 37.4 °F 93% 30.19 in 10.0 mi Calm Calm - N/A   Clear
5:15 AM 39.2 °F - 35.6 °F 87% 30.20 in 10.0 mi Calm Calm - N/A   Clear
5:35 AM 37.4 °F - 35.6 °F 93% 30.20 in 10.0 mi Calm Calm - N/A   Clear
6:55 AM 37.4 °F - 35.6 °F 93% 30.22 in 40.0 mi Calm Calm - N/A   Clear
7:50 AM 41.0 °F - 37.4 °F 87% 30.23 in 80.0 mi Calm Calm - N/A   Clear
8:47 AM 44.6 °F 41.4 °F 41.0 °F 87% 30.24 in 80.0 mi Variable 5.8 mph - N/A   Clear
9:47 AM 48.2 °F - 41.0 °F 76% 30.25 in 80.0 mi WNW 6.9 mph - N/A   Partly Cloudy
10:52 AM 53.6 °F - 35.6 °F 51% 30.24 in 80.0 mi South 11.5 mph - N/A   Partly Cloudy
11:47 AM 55.4 °F - 37.4 °F 51% 30.24 in 80.0 mi WNW 9.2 mph - N/A   Partly Cloudy
12:47 PM 57.2 °F - 33.8 °F 41% 30.23 in 80.0 mi NW 11.5 mph - N/A   Partly Cloudy
1:47 PM 59.0 °F - 32.0 °F 36% 30.21 in 80.0 mi NW 8.1 mph - N/A   Scattered Clouds
2:47 PM 59.0 °F - 26.6 °F 29% 30.20 in 80.0 mi West 9.2 mph - N/A   Scattered Clouds
3:47 PM 60.8 °F - 26.6 °F 27% 30.19 in 80.0 mi NW 5.8 mph - N/A   Scattered Clouds
4:47 PM 62.6 °F - 19.4 °F 19% 30.17 in 80.0 mi WNW 5.8 mph - N/A   Scattered Clouds
4:55 PM 62.6 °F - 23.0 °F 22% 30.17 in 10.0 mi West 6.9 mph - N/A   Clear
5:15 PM 62.6 °F - 24.8 °F 24% 30.17 in 10.0 mi NW 8.1 mph - N/A   Clear
5:35 PM 60.8 °F - 23.0 °F 23% 30.16 in 10.0 mi NW 6.9 mph - N/A   Clear
5:47 PM 60.8 °F - 24.8 °F 25% 30.16 in 80.0 mi WNW 6.9 mph - N/A   Scattered Clouds
5:55 PM 60.8 °F - 24.8 °F 25% 30.15 in 10.0 mi WNW 8.1 mph - N/A   Clear
6:15 PM 60.8 °F - 23.0 °F 23% 30.15 in 10.0 mi Calm Calm - N/A   Clear
6:35 PM 59.0 °F - 23.0 °F 25% 30.15 in 10.0 mi NNW 8.1 mph - N/A   Clear
6:49 PM 59.0 °F - 24.8 °F 27% 30.15 in 80.0 mi WNW 5.8 mph - N/A   Partly Cloudy
6:55 PM 59.0 °F - 24.8 °F 27% 30.15 in 10.0 mi Calm Calm - N/A   Clear
7:15 PM 59.0 °F - 30.2 °F 34% 30.15 in 10.0 mi Calm Calm - N/A   Clear
7:35 PM 57.2 °F - 32.0 °F 38% 30.15 in 10.0 mi Calm Calm - N/A   Clear
7:55 PM 57.2 °F - 32.0 °F 38% 30.14 in 10.0 mi Calm Calm - N/A   Clear
8:15 PM 55.4 °F - 32.0 °F 41% 30.14 in 10.0 mi Calm Calm - N/A   Clear
8:35 PM 53.6 °F - 35.6 °F 51% 30.15 in 10.0 mi NE 5.8 mph - N/A   Clear
8:55 PM 53.6 °F - 35.6 °F 51% 30.15 in 10.0 mi NE 6.9 mph - N/A   Clear
9:15 PM 51.8 °F - 33.8 °F 50% 30.16 in 10.0 mi NE 6.9 mph - N/A   Clear
9:35 PM 51.8 °F - 32.0 °F 47% 30.15 in 10.0 mi NNE 8.1 mph - N/A   Clear
9:55 PM 51.8 °F - 32.0 °F 47% 30.15 in 10.0 mi NNE 5.8 mph - N/A   Clear
10:15 PM 50.0 °F - 35.6 °F 58% 30.15 in 10.0 mi West 4.6 mph - N/A   Clear
10:35 PM 46.4 °F - 39.2 °F 76% 30.15 in 10.0 mi Calm Calm - N/A   Clear
10:55 PM 46.4 °F - 37.4 °F 71% 30.15 in 10.0 mi Calm Calm - N/A   Clear
11:15 PM 48.2 °F - 35.6 °F 62% 30.15 in 10.0 mi NNW 8.1 mph - N/A   Clear
11:35 PM 48.2 °F - 35.6 °F 62% 30.15 in 10.0 mi Calm Calm - N/A   Clear
11:55 PM 44.6 °F 42.2 °F 37.4 °F 76% 30.15 in 10.0 mi WNW 4.6 mph - N/A   Clear